Latrobe, PA

1:11 PM EDT on August 18, 2019 (GMT -0400)
Arnold Palmer Regional

Weather History for KLBE - June, 2019

Change the Weather History Date:

Monday, June 10, 2019

  Actual Average Record
Temperature  
Mean Temperature 68 °F -  
Max Temperature 77 °F 75 °F 98 °F (1999)
Min Temperature 59 °F 56 °F 48 °F (2006)
Cooling Degree Days 3    
Growing Degree Days 18 (Base 50)    
Moisture  
Dew Point 63 °F    
Average Humidity 92    
Maximum Humidity 100    
Minimum Humidity 69    
Precipitation  
Precipitation 0.00 in - - ()
Sea Level Pressure  
Sea Level Pressure 29.99 in    
Wind  
Wind Speed 7 mph (SE)    
Max Wind Speed 18 mph    
Max Gust Speed 26 mph    
Visibility 9 miles    
Events Rain    
Averages and records for this station are not official NWS values.
T = Trace of Precipitation, MM = Missing Value Source: NWS Daily Summary

Daily Weather History Graph

Daily Weather History Graph

Search for Another Location

Airport or City:

Astronomy

Jun. 10, 2019 Rise Set
Actual Time 5:47 AM EDT 8:46 PM EDT
Civil Twilight 5:14 AM EDT 9:19 PM EDT
Nautical Twilight 4:33 AM EDT 10:01 PM EDT
Astronomical Twilight 3:44 AM EDT 10:49 PM EDT
Moon 1:34 PM EDT (6/10) 1:59 AM EDT (6/10)
Length of Visible Light 16h 04m
Length of Day
14h 59m
First Quarter, 55% of the Moon is Illuminated
Jun 10
First Quarter
Jun 17
Full
Jun 25
Last Quarter
Jul 2
New
Jul 9
First Quarter

Hourly Weather History & Observations

Time (EDT) Temp. Dew Point Humidity Pressure Visibility Wind Dir Wind Speed Gust Speed Precip Events Conditions
12:15 AM 66.2 °F 59.0 °F 78% 30.10 in 10.0 mi SE 6.9 mph 13.8 mph N/A   Overcast
12:35 AM 66.2 °F 60.8 °F 83% 30.09 in 10.0 mi East 5.8 mph - N/A   Light Drizzle
12:55 AM 64.4 °F 60.8 °F 88% 30.08 in 10.0 mi East 10.4 mph - N/A   Light Drizzle
1:15 AM 64.4 °F 62.6 °F 94% 30.08 in 10.0 mi ENE 4.6 mph 11.5 mph N/A   Light Drizzle
1:35 AM 64.4 °F 62.6 °F 94% 30.07 in 9.0 mi Calm Calm - N/A   Light Drizzle
1:55 AM 62.6 °F 62.6 °F 100% 30.06 in 10.0 mi North 6.9 mph - N/A   Overcast
2:15 AM 64.4 °F 62.6 °F 94% 30.06 in 10.0 mi NNE 3.5 mph - N/A   Light Drizzle
2:35 AM 62.6 °F 62.6 °F 100% 30.05 in 10.0 mi North 5.8 mph - N/A   Light Drizzle
2:55 AM 62.6 °F 62.6 °F 100% 30.04 in 10.0 mi NNE 8.1 mph - N/A   Overcast
3:15 AM 62.6 °F 62.6 °F 100% 30.03 in 10.0 mi ENE 9.2 mph - N/A   Scattered Clouds
3:35 AM 62.6 °F 62.6 °F 100% 30.03 in 10.0 mi East 5.8 mph - N/A   Light Drizzle
3:55 AM 62.6 °F 62.6 °F 100% 30.02 in 10.0 mi ENE 8.1 mph - N/A   Clear
4:15 AM 62.6 °F 60.8 °F 94% 30.02 in 10.0 mi Calm Calm 12.7 mph N/A   Scattered Clouds
4:35 AM 62.6 °F 60.8 °F 94% 30.02 in 10.0 mi East 8.1 mph 16.1 mph N/A   Mostly Cloudy
4:55 AM 62.6 °F 60.8 °F 94% 30.01 in 10.0 mi ESE 10.4 mph - N/A   Mostly Cloudy
5:15 AM 62.6 °F 60.8 °F 94% 30.01 in 10.0 mi ESE 4.6 mph 16.1 mph N/A   Partly Cloudy
5:35 AM 62.6 °F 60.8 °F 94% 30.01 in 10.0 mi Calm Calm - N/A   Scattered Clouds
5:55 AM 62.6 °F 60.8 °F 94% 30.01 in 10.0 mi Variable 3.5 mph - N/A   Mostly Cloudy
6:45 AM 62.6 °F 60.8 °F 94% 30.00 in 10.0 mi East 11.5 mph - N/A   Mostly Cloudy
7:45 AM 62.6 °F 60.8 °F 94% 30.00 in 10.0 mi East 11.5 mph - N/A   Mostly Cloudy
8:50 AM 66.2 °F 62.6 °F 88% 30.00 in 10.0 mi South 5.8 mph - N/A   Mostly Cloudy
9:45 AM 66.2 °F 62.6 °F 88% 29.99 in 10.0 mi Calm Calm - N/A   Mostly Cloudy
10:51 AM 69.8 °F 62.6 °F 78% 29.96 in 10.0 mi Calm Calm - N/A   Mostly Cloudy
11:51 AM 73.4 °F 66.2 °F 78% 29.94 in 10.0 mi SSE 6.9 mph - N/A   Scattered Clouds
12:51 PM 77.0 °F 66.2 °F 69% 29.92 in 10.0 mi SSW 11.5 mph - N/A   Scattered Clouds
1:51 PM 77.0 °F 66.2 °F 69% 29.90 in 10.0 mi South 6.9 mph - N/A   Mostly Cloudy
2:50 PM 77.0 °F 68.0 °F 74% 29.88 in 10.0 mi SSW 9.2 mph - N/A   Mostly Cloudy
3:50 PM 75.2 °F 68.0 °F 78% 29.86 in 6.0 mi SSW 9.2 mph - N/A Rain Light Rain
4:50 PM 75.2 °F 69.8 °F 83% 29.85 in 8.0 mi SSW 11.5 mph - N/A   Mostly Cloudy
5:50 PM 75.2 °F 71.6 °F 89% 29.84 in 4.0 mi SSW 9.2 mph - N/A Rain Light Rain
6:50 PM 71.6 °F 71.6 °F 100% 29.86 in 3.0 mi SSW 16.1 mph - N/A Rain Light Rain
7:50 PM 68.0 °F 68.0 °F 100% 29.89 in 5.0 mi WNW 13.8 mph - N/A Rain Light Rain
8:50 PM 66.2 °F 66.2 °F 100% 29.94 in 5.0 mi West 13.8 mph - N/A Rain Light Rain
9:50 PM 64.4 °F 64.4 °F 100% 29.98 in 8.0 mi West 9.2 mph - N/A   Overcast
10:15 PM 64.4 °F 64.4 °F 100% 29.98 in 10.0 mi West 6.9 mph - N/A   Overcast
10:35 PM 64.4 °F 64.4 °F 100% 29.99 in 9.0 mi WNW 8.1 mph - N/A   Overcast
10:55 PM 62.6 °F 62.6 °F 100% 30.00 in 9.0 mi WNW 12.7 mph - N/A   Light Drizzle
11:15 PM 60.8 °F 60.8 °F 100% 30.02 in 3.0 mi NW 18.4 mph 26.5 mph N/A Rain Light Rain
11:35 PM 59.0 °F 59.0 °F 100% 30.04 in 10.0 mi NW 12.7 mph 25.3 mph N/A   Overcast
11:55 PM 59.0 °F 59.0 °F 100% 30.05 in 10.0 mi NW 9.2 mph 15.0 mph N/A   Overcast